| time (UTC) | temp C | wind direction | speed KPH | gust KPH | rain 1hr cm | rain 24hr cm | rain mn cm | humidity % | barometer mb |
| 20260508234049 | 10 | 277 | 3.2 | 9.7 | 0.00 | 0.00 | 0.00 | 79 | 1019.7 |
| 20260508234017 | 10 | 277 | 3.2 | 9.7 | 0.00 | 0.00 | 0.00 | 79 | 1019.7 |
| 20260508233534 | 10 | 306 | 3.2 | 9.7 | 0.00 | 0.00 | 0.00 | 79 | 1019.7 |
| 20260508233033 | 10 | 280 | 3.2 | 6.4 | 0.00 | 0.00 | 0.00 | 79 | 1019.7 |
| 20260508232530 | 10 | 293 | 3.2 | 6.4 | 0.00 | 0.00 | 0.00 | 79 | 1019.7 |
| 20260508232029 | 10 | 286 | 3.2 | 6.4 | 0.00 | 0.00 | 0.00 | 78 | 1019.8 |
| 20260508231527 | 10 | 289 | 3.2 | 6.4 | 0.00 | 0.00 | 0.00 | 78 | 1019.7 |
| 20260508231025 | 10 | 296 | 3.2 | 9.7 | 0.00 | 0.00 | 0.00 | 78 | 1019.7 |
| 20260508230524 | 10 | 291 | 3.2 | 6.4 | 0.00 | 0.00 | 0.00 | 78 | 1019.7 |
| 20260508230022 | 10 | 289 | 4.8 | 9.7 | 0.00 | 0.00 | 0.00 | 78 | 1019.8 |
| 20260508225521 | 10 | 292 | 3.2 | 4.8 | 0.00 | 0.00 | 0.00 | 78 | 1019.8 |
| 20260508225018 | 10 | 291 | 3.2 | 6.4 | 0.00 | 0.00 | 0.00 | 78 | 1019.7 |
| 20260508224516 | 10 | 288 | 3.2 | 6.4 | 0.00 | 0.00 | 0.00 | 78 | 1019.7 |
| 20260508224035 | 10 | 286 | 1.6 | 6.4 | 0.00 | 0.00 | 0.00 | 78 | 1019.7 |
| 20260508223533 | 10 | 304 | 3.2 | 6.4 | 0.00 | 0.00 | 0.00 | 78 | 1019.6 |
| 20260508223031 | 10 | 305 | 3.2 | 6.4 | 0.00 | 0.00 | 0.00 | 77 | 1019.7 |
| 20260508222529 | 10 | 293 | 3.2 | 11.3 | 0.00 | 0.00 | 0.00 | 77 | 1019.6 |
| 20260508222027 | 10 | 285 | 3.2 | 11.3 | 0.00 | 0.00 | 0.00 | 77 | 1019.7 |
| 20260508221526 | 10 | 285 | 3.2 | 6.4 | 0.00 | 0.00 | 0.00 | 77 | 1019.6 |
| 20260508221024 | 10 | 277 | 3.2 | 6.4 | 0.00 | 0.00 | 0.00 | 77 | 1019.6 |
| 20260508220522 | 10 | 291 | 3.2 | 4.8 | 0.00 | 0.00 | 0.00 | 77 | 1019.6 |
| 20260508220021 | 10 | 295 | 1.6 | 6.4 | 0.00 | 0.00 | 0.00 | 77 | 1019.6 |
| 20260508215518 | 10 | 297 | 3.2 | 9.7 | 0.00 | 0.00 | 0.00 | 77 | 1019.6 |
| 20260508215048 | 10 | 295 | 1.6 | 4.8 | 0.00 | 0.00 | 0.00 | 77 | 1019.6 |
| 20260508215017 | 10 | 295 | 1.6 | 4.8 | 0.00 | 0.00 | 0.00 | 77 | 1019.6 |
| 20260508214535 | 10 | 286 | 1.6 | 6.4 | 0.00 | 0.00 | 0.00 | 76 | 1019.6 |
| 20260508214033 | 10 | 284 | 3.2 | 6.4 | 0.00 | 0.00 | 0.00 | 76 | 1019.6 |
| 20260508213531 | 10 | 284 | 3.2 | 4.8 | 0.00 | 0.00 | 0.00 | 77 | 1019.6 |
| 20260508213029 | 10 | 300 | 4.8 | 11.3 | 0.00 | 0.00 | 0.00 | 76 | 1019.6 |
| 20260508212528 | 10 | 289 | 1.6 | 6.4 | 0.00 | 0.00 | 0.00 | 76 | 1019.8 |
| 20260508212026 | 10 | 285 | 1.6 | 4.8 | 0.00 | 0.00 | 0.00 | 77 | 1019.7 |
| 20260508211524 | 10 | 299 | 3.2 | 6.4 | 0.00 | 0.00 | 0.00 | 77 | 1019.7 |
| 20260508211022 | 10 | 321 | 3.2 | 9.7 | 0.00 | 0.00 | 0.00 | 77 | 1019.7 |
| 20260508210521 | 10 | 316 | 4.8 | 11.3 | 0.00 | 0.00 | 0.00 | 77 | 1019.8 |
| 20260508210018 | 10 | 314 | 4.8 | 9.7 | 0.00 | 0.00 | 0.00 | 77 | 1019.7 |
| 20260508205517 | 10 | 310 | 4.8 | 9.7 | 0.00 | 0.00 | 0.00 | 76 | 1019.8 |
| 20260508205035 | 10 | 311 | 4.8 | 11.3 | 0.00 | 0.00 | 0.00 | 76 | 1019.8 |
| 20260508204533 | 10 | 307 | 3.2 | 9.7 | 0.00 | 0.00 | 0.00 | 76 | 1019.8 |
| 20260508204031 | 10 | 301 | 4.8 | 9.7 | 0.00 | 0.00 | 0.00 | 77 | 1019.7 |
| 20260508203530 | 10 | 317 | 3.2 | 11.3 | 0.00 | 0.00 | 0.00 | 77 | 1019.7 |
| 20260508203027 | 11 | 326 | 4.8 | 11.3 | 0.00 | 0.00 | 0.00 | 77 | 1019.7 |
| 20260508202525 | 11 | 285 | 3.2 | 6.4 | 0.00 | 0.00 | 0.00 | 77 | 1019.7 |
| 20260508202023 | 11 | 310 | 3.2 | 6.4 | 0.00 | 0.00 | 0.00 | 77 | 1019.7 |
| 20260508201522 | 11 | 314 | 3.2 | 6.4 | 0.00 | 0.00 | 0.00 | 77 | 1019.7 |
| 20260508201020 | 11 | 299 | 4.8 | 11.3 | 0.00 | 0.00 | 0.00 | 78 | 1019.6 |
| 20260508200518 | 11 | 310 | 3.2 | 9.7 | 0.00 | 0.00 | 0.00 | 77 | 1019.6 |
| 20260508200049 | 11 | 331 | 1.6 | 6.4 | 0.00 | 0.00 | 0.00 | 78 | 1019.7 |
| 20260508200016 | 11 | 331 | 1.6 | 6.4 | 0.00 | 0.00 | 0.00 | 78 | 1019.7 |
| 20260508195534 | 11 | 326 | 3.2 | 9.7 | 0.00 | 0.00 | 0.00 | 77 | 1019.7 |
| 20260508195033 | 11 | 314 | 3.2 | 12.9 | 0.00 | 0.00 | 0.00 | 76 | 1019.6 |
| 20260508194531 | 11 | 315 | 4.8 | 11.3 | 0.00 | 0.00 | 0.00 | 76 | 1019.5 |
| 20260508194049 | 11 | 333 | 4.8 | 11.3 | 0.00 | 0.00 | 0.00 | 75 | 1019.6 |
| 20260508194029 | 11 | 333 | 4.8 | 11.3 | 0.00 | 0.00 | 0.00 | 75 | 1019.6 |
| 20260508193528 | 11 | 310 | 4.8 | 12.9 | 0.00 | 0.00 | 0.00 | 75 | 1019.5 |
| 20260508193025 | 11 | 318 | 4.8 | 11.3 | 0.00 | 0.00 | 0.00 | 75 | 1019.6 |
| 20260508192523 | 11 | 300 | 3.2 | 11.3 | 0.00 | 0.00 | 0.00 | 75 | 1019.5 |
| 20260508192021 | 11 | 304 | 3.2 | 9.7 | 0.00 | 0.00 | 0.00 | 75 | 1019.6 |
| 20260508191520 | 11 | 296 | 3.2 | 11.3 | 0.00 | 0.00 | 0.00 | 74 | 1019.5 |
| 20260508191018 | 11 | 318 | 3.2 | 9.7 | 0.00 | 0.00 | 0.00 | 74 | 1019.5 |
| 20260508190535 | 11 | 321 | 4.8 | 11.3 | 0.00 | 0.00 | 0.00 | 74 | 1019.5 |
| 20260508190034 | 11 | 298 | 3.2 | 9.7 | 0.00 | 0.00 | 0.00 | 74 | 1019.5 |
| 20260508185532 | 11 | 300 | 1.6 | 4.8 | 0.00 | 0.00 | 0.00 | 74 | 1019.4 |
| 20260508185030 | 11 | 289 | 1.6 | 4.8 | 0.00 | 0.00 | 0.00 | 74 | 1019.3 |
| 20260508184527 | 11 | 320 | 3.2 | 9.7 | 0.00 | 0.00 | 0.00 | 74 | 1019.3 |
| 20260508184026 | 11 | 290 | 4.8 | 9.7 | 0.00 | 0.00 | 0.00 | 74 | 1019.3 |
| 20260508183524 | 11 | 315 | 3.2 | 11.3 | 0.00 | 0.00 | 0.00 | 74 | 1019.2 |
| 20260508183022 | 11 | 325 | 4.8 | 11.3 | 0.00 | 0.00 | 0.00 | 74 | 1019.2 |
| 20260508182519 | 11 | 332 | 1.6 | 9.7 | 0.00 | 0.00 | 0.00 | 74 | 1019.1 |
| 20260508182048 | 11 | 304 | 3.2 | 11.3 | 0.00 | 0.00 | 0.00 | 73 | 1019.1 |
| 20260508182017 | 11 | 304 | 3.2 | 11.3 | 0.00 | 0.00 | 0.00 | 73 | 1019.1 |
| 20260508181516 | 11 | 331 | 4.8 | 11.3 | 0.00 | 0.00 | 0.00 | 73 | 1019.0 |
| 20260508181034 | 11 | 294 | 4.8 | 11.3 | 0.00 | 0.03 | 0.00 | 73 | 1018.9 |
| 20260508180533 | 11 | 317 | 3.2 | 6.4 | 0.00 | 0.03 | 0.00 | 73 | 1018.9 |
| 20260508180029 | 11 | 293 | 3.2 | 9.7 | 0.00 | 0.03 | 0.00 | 73 | 1018.9 |
| 20260508175527 | 11 | 307 | 3.2 | 9.7 | 0.00 | 0.03 | 0.00 | 73 | 1018.8 |
| 20260508175025 | 11 | 298 | 4.8 | 11.3 | 0.00 | 0.03 | 0.00 | 73 | 1018.7 |
| 20260508174523 | 11 | 274 | 3.2 | 6.4 | 0.00 | 0.03 | 0.00 | 73 | 1018.6 |
| 20260508174022 | 11 | 290 | 3.2 | 9.7 | 0.00 | 0.03 | 0.00 | 73 | 1018.6 |
| 20260508173519 | 11 | 287 | 3.2 | 9.7 | 0.00 | 0.03 | 0.00 | 73 | 1018.6 |
| 20260508173049 | 12 | 279 | 6.4 | 11.3 | 0.00 | 0.03 | 0.00 | 73 | 1018.7 |
| 20260508173018 | 12 | 279 | 6.4 | 11.3 | 0.00 | 0.03 | 0.00 | 73 | 1018.7 |
| 20260508172535 | 12 | 276 | 4.8 | 11.3 | 0.00 | 0.03 | 0.00 | 72 | 1018.6 |
| 20260508172035 | 12 | 297 | 6.4 | 16.1 | 0.00 | 0.03 | 0.00 | 73 | 1018.6 |
| 20260508171533 | 12 | 294 | 4.8 | 9.7 | 0.00 | 0.03 | 0.00 | 72 | 1018.6 |
| 20260508171030 | 12 | 310 | 6.4 | 16.1 | 0.00 | 0.03 | 0.00 | 72 | 1018.7 |
| 20260508170529 | 12 | 292 | 6.4 | 12.9 | 0.00 | 0.03 | 0.00 | 72 | 1018.6 |
| 20260508170027 | 12 | 316 | 6.4 | 12.9 | 0.00 | 0.03 | 0.00 | 72 | 1018.5 |
| 20260508165524 | 12 | 305 | 4.8 | 14.5 | 0.00 | 0.03 | 0.00 | 72 | 1018.5 |
| 20260508165022 | 12 | 311 | 8.0 | 14.5 | 0.00 | 0.03 | 0.00 | 72 | 1018.4 |
| 20260508164520 | 12 | 295 | 6.4 | 14.5 | 0.00 | 0.03 | 0.00 | 72 | 1018.5 |
| 20260508164051 | 12 | 306 | 4.8 | 12.9 | 0.00 | 0.03 | 0.00 | 72 | 1018.4 |
| 20260508164020 | 12 | 306 | 4.8 | 12.9 | 0.00 | 0.03 | 0.00 | 72 | 1018.4 |
| 20260508163517 | 12 | 308 | 4.8 | 9.7 | 0.00 | 0.03 | 0.00 | 72 | 1018.5 |
| 20260508163035 | 12 | 294 | 6.4 | 14.5 | 0.00 | 0.03 | 0.00 | 71 | 1018.5 |
| 20260508162533 | 12 | 309 | 6.4 | 14.5 | 0.00 | 0.03 | 0.00 | 71 | 1018.4 |
| 20260508162032 | 12 | 324 | 6.4 | 12.9 | 0.00 | 0.03 | 0.00 | 71 | 1018.4 |
| 20260508161530 | 12 | 321 | 4.8 | 9.7 | 0.00 | 0.03 | 0.00 | 72 | 1018.3 |
| 20260508161028 | 12 | 316 | 4.8 | 11.3 | 0.00 | 0.03 | 0.00 | 71 | 1018.3 |
| 20260508160526 | 12 | 311 | 6.4 | 14.5 | 0.00 | 0.03 | 0.00 | 71 | 1018.4 |
| 20260508160024 | 12 | 301 | 6.4 | 12.9 | 0.00 | 0.03 | 0.00 | 71 | 1018.4 |
| 20260508155523 | 12 | 310 | 6.4 | 14.5 | 0.00 | 0.03 | 0.00 | 71 | 1018.4 |
| 20260508155020 | 12 | 300 | 6.4 | 14.5 | 0.00 | 0.03 | 0.00 | 71 | 1018.4 |
| 20260508154519 | 12 | 296 | 6.4 | 14.5 | 0.00 | 0.03 | 0.00 | 71 | 1018.4 |
| 20260508154049 | 12 | 297 | 6.4 | 16.1 | 0.00 | 0.03 | 0.00 | 71 | 1018.4 |
| 20260508154017 | 12 | 297 | 6.4 | 16.1 | 0.00 | 0.03 | 0.00 | 71 | 1018.4 |
| 20260508153535 | 12 | 303 | 4.8 | 16.1 | 0.00 | 0.03 | 0.00 | 71 | 1018.4 |
| 20260508153034 | 12 | 315 | 6.4 | 16.1 | 0.00 | 0.03 | 0.00 | 71 | 1018.4 |
| 20260508152531 | 12 | 292 | 8.0 | 14.5 | 0.00 | 0.03 | 0.00 | 71 | 1018.3 |
| 20260508152029 | 12 | 310 | 6.4 | 14.5 | 0.00 | 0.03 | 0.00 | 71 | 1018.4 |
| 20260508151526 | 12 | 301 | 9.7 | 22.5 | 0.00 | 0.03 | 0.00 | 71 | 1018.3 |
| 20260508151025 | 12 | 317 | 8.0 | 20.9 | 0.00 | 0.03 | 0.00 | 71 | 1018.3 |
| 20260508150523 | 12 | 291 | 4.8 | 14.5 | 0.00 | 0.03 | 0.00 | 70 | 1018.2 |
| 20260508150021 | 12 | 293 | 4.8 | 16.1 | 0.00 | 0.03 | 0.00 | 71 | 1018.2 |
| 20260508145519 | 12 | 312 | 6.4 | 16.1 | 0.00 | 0.03 | 0.00 | 71 | 1018.2 |
| 20260508145017 | 12 | 337 | 8.0 | 16.1 | 0.00 | 0.03 | 0.00 | 71 | 1018.1 |
| 20260508144536 | 12 | 347 | 4.8 | 14.5 | 0.00 | 0.03 | 0.00 | 71 | 1018.1 |
| 20260508144034 | 12 | 300 | 4.8 | 14.5 | 0.00 | 0.03 | 0.00 | 72 | 1018.2 |
| 20260508143532 | 12 | 337 | 6.4 | 16.1 | 0.00 | 0.03 | 0.00 | 71 | 1018.2 |
| 20260508143030 | 12 | 334 | 4.8 | 11.3 | 0.00 | 0.03 | 0.00 | 72 | 1018.2 |
| 20260508142528 | 12 | 327 | 4.8 | 12.9 | 0.00 | 0.03 | 0.00 | 72 | 1018.3 |
| 20260508142026 | 12 | 322 | 4.8 | 16.1 | 0.00 | 0.03 | 0.00 | 72 | 1018.2 |
| 20260508141525 | 12 | 312 | 6.4 | 14.5 | 0.00 | 0.03 | 0.00 | 72 | 1018.2 |
| 20260508141023 | 12 | 287 | 6.4 | 14.5 | 0.00 | 0.03 | 0.00 | 72 | 1018.3 |
| 20260508140520 | 12 | 305 | 8.0 | 14.5 | 0.00 | 0.03 | 0.00 | 72 | 1018.3 |
| 20260508140020 | 12 | 309 | 6.4 | 16.1 | 0.00 | 0.03 | 0.00 | 72 | 1018.2 |
| 20260508135536 | 12 | 290 | 6.4 | 12.9 | 0.00 | 0.03 | 0.00 | 72 | 1018.2 |
| 20260508135034 | 12 | 312 | 4.8 | 9.7 | 0.00 | 0.03 | 0.00 | 71 | 1018.2 |
| 20260508134532 | 12 | 337 | 3.2 | 14.5 | 0.00 | 0.03 | 0.00 | 72 | 1018.3 |
| 20260508134030 | 12 | 305 | 4.8 | 11.3 | 0.00 | 0.03 | 0.00 | 72 | 1018.3 |
| 20260508133528 | 12 | 312 | 3.2 | 11.3 | 0.00 | 0.03 | 0.00 | 72 | 1018.3 |
| 20260508133026 | 12 | 331 | 4.8 | 11.3 | 0.00 | 0.03 | 0.00 | 71 | 1018.3 |
| 20260508132525 | 12 | 339 | 4.8 | 14.5 | 0.00 | 0.03 | 0.00 | 71 | 1018.2 |
| 20260508132023 | 13 | 329 | 3.2 | 6.4 | 0.00 | 0.03 | 0.00 | 71 | 1018.3 |
| 20260508131521 | 13 | 309 | 3.2 | 11.3 | 0.00 | 0.03 | 0.00 | 71 | 1018.4 |
| 20260508131019 | 13 | 275 | 4.8 | 11.3 | 0.00 | 0.03 | 0.00 | 71 | 1018.3 |
| 20260508130517 | 13 | 276 | 8.0 | 16.1 | 0.00 | 0.03 | 0.00 | 71 | 1018.4 |
| 20260508130046 | 13 | 300 | 8.0 | 17.7 | 0.00 | 0.03 | 0.00 | 71 | 1018.4 |
| 20260508130015 | 13 | 300 | 8.0 | 17.7 | 0.00 | 0.03 | 0.00 | 71 | 1018.4 |
| 20260508125534 | 13 | 287 | 8.0 | 16.1 | 0.00 | 0.03 | 0.00 | 70 | 1018.4 |
| 20260508125032 | 13 | 290 | 6.4 | 14.5 | 0.00 | 0.03 | 0.00 | 70 | 1018.4 |
| 20260508124531 | 13 | 297 | 8.0 | 17.7 | 0.00 | 0.03 | 0.00 | 71 | 1018.3 |
| 20260508124029 | 13 | 352 | 4.8 | 11.3 | 0.00 | 0.03 | 0.00 | 71 | 1018.4 |
| 20260508123527 | 13 | 282 | 6.4 | 14.5 | 0.00 | 0.03 | 0.00 | 71 | 1018.3 |
| 20260508123025 | 13 | 331 | 6.4 | 17.7 | 0.00 | 0.03 | 0.00 | 72 | 1018.3 |
| 20260508122523 | 13 | 343 | 4.8 | 14.5 | 0.00 | 0.03 | 0.00 | 73 | 1018.3 |
| 20260508122021 | 12 | 300 | 8.0 | 17.7 | 0.00 | 0.03 | 0.00 | 72 | 1018.3 |
| 20260508121520 | 12 | 296 | 9.7 | 20.9 | 0.00 | 0.03 | 0.00 | 72 | 1018.3 |
| 20260508121018 | 12 | 318 | 8.0 | 16.1 | 0.00 | 0.03 | 0.00 | 72 | 1018.4 |
| 20260508120516 | 13 | 308 | 8.0 | 16.1 | 0.00 | 0.03 | 0.00 | 72 | 1018.2 |
| 20260508120034 | 13 | 297 | 6.4 | 17.7 | 0.00 | 0.03 | 0.00 | 72 | 1018.2 |
| 20260508115532 | 13 | 291 | 9.7 | 20.9 | 0.00 | 0.03 | 0.00 | 71 | 1018.1 |
| 20260508115031 | 13 | 297 | 8.0 | 16.1 | 0.00 | 0.03 | 0.00 | 71 | 1018.0 |
| 20260508114529 | 13 | 291 | 9.7 | 24.1 | 0.00 | 0.03 | 0.00 | 71 | 1017.9 |
| 20260508114027 | 12 | 292 | 6.4 | 14.5 | 0.00 | 0.03 | 0.00 | 71 | 1018.0 |
| 20260508113525 | 12 | 292 | 6.4 | 14.5 | 0.00 | 0.03 | 0.00 | 71 | 1018.0 |
| 20260508113023 | 12 | 290 | 8.0 | 17.7 | 0.00 | 0.03 | 0.00 | 72 | 1018.0 |
| 20260508112522 | 12 | 291 | 6.4 | 14.5 | 0.00 | 0.03 | 0.00 | 72 | 1018.0 |
| 20260508112019 | 12 | 294 | 9.7 | 16.1 | 0.00 | 0.03 | 0.00 | 72 | 1018.0 |
| 20260508111518 | 13 | 303 | 8.0 | 17.7 | 0.00 | 0.03 | 0.00 | 73 | 1018.0 |
| 20260508111016 | 13 | 290 | 8.0 | 22.5 | 0.00 | 0.03 | 0.00 | 72 | 1017.9 |
| 20260508110535 | 13 | 282 | 8.0 | 16.1 | 0.00 | 0.03 | 0.00 | 72 | 1017.9 |
| 20260508110033 | 13 | 278 | 6.4 | 12.9 | 0.00 | 0.03 | 0.00 | 73 | 1017.9 |
| 20260508105530 | 13 | 296 | 3.2 | 11.3 | 0.00 | 0.03 | 0.00 | 72 | 1017.8 |
| 20260508105029 | 13 | 295 | 4.8 | 9.7 | 0.00 | 0.03 | 0.00 | 73 | 1017.8 |
| 20260508104528 | 12 | 287 | 4.8 | 11.3 | 0.00 | 0.03 | 0.00 | 75 | 1017.6 |
| 20260508104025 | 12 | 295 | 4.8 | 11.3 | 0.00 | 0.03 | 0.00 | 74 | 1017.7 |
| 20260508103524 | 12 | 284 | 6.4 | 14.5 | 0.00 | 0.03 | 0.00 | 75 | 1017.8 |
| 20260508103022 | 12 | 291 | 4.8 | 11.3 | 0.00 | 0.03 | 0.00 | 75 | 1017.7 |
| 20260508102520 | 12 | 293 | 3.2 | 11.3 | 0.00 | 0.03 | 0.00 | 74 | 1017.8 |
| 20260508102050 | 12 | 281 | 4.8 | 14.5 | 0.00 | 0.03 | 0.00 | 74 | 1017.8 |
| 20260508102018 | 12 | 281 | 4.8 | 14.5 | 0.00 | 0.03 | 0.00 | 74 | 1017.8 |
| 20260508101516 | 12 | 277 | 4.8 | 11.3 | 0.00 | 0.03 | 0.00 | 74 | 1017.9 |
| 20260508101035 | 12 | 286 | 6.4 | 12.9 | 0.00 | 0.03 | 0.00 | 74 | 1017.9 |
| 20260508100533 | 12 | 285 | 8.0 | 14.5 | 0.00 | 0.03 | 0.00 | 74 | 1017.9 |
| 20260508100032 | 12 | 291 | 4.8 | 12.9 | 0.00 | 0.03 | 0.00 | 73 | 1017.9 |
| 20260508095529 | 12 | 294 | 4.8 | 11.3 | 0.00 | 0.03 | 0.00 | 74 | 1017.8 |
| 20260508095028 | 12 | 284 | 4.8 | 12.9 | 0.00 | 0.03 | 0.00 | 74 | 1017.9 |
| 20260508094526 | 12 | 272 | 4.8 | 11.3 | 0.00 | 0.03 | 0.00 | 75 | 1017.9 |
| 20260508094023 | 12 | 280 | 4.8 | 9.7 | 0.00 | 0.03 | 0.00 | 74 | 1017.7 |
| 20260508093521 | 12 | 320 | 4.8 | 12.9 | 0.00 | 0.03 | 0.00 | 74 | 1017.7 |
| 20260508093020 | 12 | 315 | 3.2 | 14.5 | 0.00 | 0.03 | 0.00 | 75 | 1017.7 |
| 20260508092518 | 12 | 296 | 6.4 | 11.3 | 0.00 | 0.03 | 0.00 | 75 | 1017.7 |
| 20260508092016 | 12 | 303 | 6.4 | 12.9 | 0.00 | 0.03 | 0.00 | 76 | 1017.7 |
| 20260508091534 | 12 | 291 | 4.8 | 11.3 | 0.00 | 0.03 | 0.00 | 76 | 1017.7 |
| 20260508091033 | 12 | 277 | 6.4 | 12.9 | 0.00 | 0.03 | 0.00 | 76 | 1017.7 |
| 20260508090531 | 12 | 301 | 4.8 | 9.7 | 0.00 | 0.03 | 0.00 | 76 | 1017.7 |
| 20260508090029 | 12 | 306 | 4.8 | 9.7 | 0.00 | 0.03 | 0.00 | 76 | 1017.6 |
| 20260508085527 | 12 | 350 | 6.4 | 12.9 | 0.00 | 0.03 | 0.00 | 76 | 1017.5 |
| 20260508085025 | 12 | 312 | 4.8 | 11.3 | 0.00 | 0.03 | 0.00 | 76 | 1017.5 |
| 20260508084523 | 12 | 301 | 4.8 | 11.3 | 0.00 | 0.03 | 0.00 | 76 | 1017.5 |
| 20260508084022 | 12 | 330 | 3.2 | 6.4 | 0.00 | 0.03 | 0.00 | 76 | 1017.4 |
| 20260508083519 | 12 | 321 | 3.2 | 6.4 | 0.00 | 0.03 | 0.00 | 76 | 1017.3 |
| 20260508083018 | 12 | 348 | 1.6 | 11.3 | 0.00 | 0.03 | 0.00 | 77 | 1017.3 |
| 20260508082517 | 12 | 330 | 3.2 | 9.7 | 0.00 | 0.03 | 0.00 | 77 | 1017.3 |
| 20260508082034 | 12 | 344 | 4.8 | 9.7 | 0.00 | 0.03 | 0.00 | 78 | 1017.3 |
| 20260508081532 | 12 | 290 | 3.2 | 9.7 | 0.00 | 0.03 | 0.00 | 78 | 1017.3 |
| 20260508081030 | 11 | 296 | 4.8 | 11.3 | 0.00 | 0.03 | 0.00 | 79 | 1017.3 |
| 20260508080528 | 11 | 298 | 3.2 | 6.4 | 0.00 | 0.03 | 0.00 | 79 | 1017.3 |
| 20260508080026 | 11 | 285 | 4.8 | 9.7 | 0.00 | 0.03 | 0.00 | 79 | 1017.4 |
| 20260508075525 | 11 | 298 | 4.8 | 11.3 | 0.00 | 0.03 | 0.00 | 79 | 1017.3 |
| 20260508075023 | 11 | 285 | 4.8 | 9.7 | 0.00 | 0.03 | 0.00 | 79 | 1017.3 |
| 20260508074521 | 11 | 283 | 3.2 | 9.7 | 0.00 | 0.03 | 0.00 | 79 | 1017.4 |
| 20260508074020 | 11 | 289 | 3.2 | 11.3 | 0.00 | 0.03 | 0.00 | 79 | 1017.3 |
| 20260508073517 | 11 | 298 | 3.2 | 9.7 | 0.00 | 0.03 | 0.00 | 80 | 1017.3 |
| 20260508073050 | 11 | 303 | 3.2 | 6.4 | 0.00 | 0.03 | 0.00 | 80 | 1017.2 |
| 20260508073016 | 11 | 303 | 3.2 | 6.4 | 0.00 | 0.03 | 0.00 | 80 | 1017.2 |
| 20260508072534 | 11 | 295 | 3.2 | 9.7 | 0.00 | 0.03 | 0.00 | 80 | 1017.2 |
| 20260508072033 | 11 | 307 | 4.8 | 11.3 | 0.00 | 0.03 | 0.00 | 80 | 1017.2 |
| 20260508071530 | 11 | 309 | 3.2 | 9.7 | 0.00 | 0.03 | 0.00 | 80 | 1017.2 |
| 20260508071029 | 11 | 289 | 3.2 | 9.7 | 0.00 | 0.03 | 0.00 | 81 | 1017.1 |
| 20260508070527 | 11 | 322 | 3.2 | 9.7 | 0.00 | 0.03 | 0.00 | 81 | 1017.1 |
| 20260508070025 | 11 | 333 | 3.2 | 6.4 | 0.00 | 0.03 | 0.00 | 81 | 1017.0 |
| 20260508065523 | 11 | 316 | 3.2 | 6.4 | 0.00 | 0.03 | 0.00 | 81 | 1017.1 |
| 20260508065021 | 11 | 295 | 3.2 | 9.7 | 0.00 | 0.03 | 0.00 | 81 | 1017.1 |
| 20260508064519 | 11 | 347 | 1.6 | 4.8 | 0.00 | 0.03 | 0.00 | 81 | 1017.0 |
| 20260508064017 | 11 | 298 | 1.6 | 6.4 | 0.00 | 0.03 | 0.00 | 81 | 1017.0 |
| 20260508063516 | 11 | 290 | 3.2 | 6.4 | 0.00 | 0.03 | 0.00 | 81 | 1016.9 |
| 20260508063034 | 11 | 317 | 4.8 | 9.7 | 0.00 | 0.03 | 0.00 | 82 | 1017.0 |
| 20260508062532 | 11 | 305 | 3.2 | 6.4 | 0.00 | 0.03 | 0.00 | 82 | 1016.8 |
| 20260508062030 | 11 | 305 | 3.2 | 6.4 | 0.00 | 0.03 | 0.00 | 82 | 1016.9 |
| 20260508061528 | 11 | 303 | 1.6 | 4.8 | 0.00 | 0.03 | 0.00 | 82 | 1016.8 |
| 20260508061027 | 11 | 302 | 1.6 | 6.4 | 0.00 | 0.03 | 0.00 | 82 | 1016.8 |
| 20260508060524 | 11 | 292 | 3.2 | 6.4 | 0.00 | 0.03 | 0.00 | 82 | 1016.8 |
| 20260508060023 | 11 | 347 | 3.2 | 6.4 | 0.00 | 0.03 | 0.00 | 83 | 1016.7 |
| 20260508055521 | 10 | 297 | 3.2 | 6.4 | 0.00 | 0.03 | 0.00 | 83 | 1016.7 |
| 20260508055019 | 10 | 298 | 3.2 | 6.4 | 0.00 | 0.03 | 0.00 | 82 | 1016.6 |
| 20260508054518 | 10 | 345 | 3.2 | 4.8 | 0.00 | 0.03 | 0.00 | 82 | 1016.5 |
| 20260508054036 | 10 | 349 | 3.2 | 9.7 | 0.00 | 0.03 | 0.00 | 83 | 1016.5 |
| 20260508053533 | 10 | 332 | 1.6 | 4.8 | 0.00 | 0.03 | 0.00 | 83 | 1016.5 |
| 20260508053032 | 10 | 345 | 0.0 | 3.2 | 0.00 | 0.03 | 0.00 | 83 | 1016.4 |
| 20260508052530 | 10 | 0.0 | 0.0 | 0.00 | 0.03 | 0.00 | 83 | 1016.3 | |
| 20260508052027 | 10 | 0.0 | 0.0 | 0.00 | 0.03 | 0.00 | 83 | 1016.4 | |
| 20260508051526 | 10 | 0.0 | 0.0 | 0.00 | 0.03 | 0.00 | 84 | 1016.3 | |
| 20260508051024 | 10 | 24 | 0.0 | 3.2 | 0.00 | 0.03 | 0.00 | 85 | 1016.3 |
| 20260508050522 | 10 | 28 | 1.6 | 4.8 | 0.00 | 0.03 | 0.00 | 85 | 1016.2 |
| 20260508050020 | 10 | 351 | 1.6 | 4.8 | 0.00 | 0.03 | 0.00 | 85 | 1016.3 |
| 20260508045518 | 10 | 349 | 1.6 | 6.4 | 0.00 | 0.03 | 0.00 | 85 | 1016.2 |
| 20260508045016 | 10 | 356 | 1.6 | 6.4 | 0.00 | 0.03 | 0.00 | 85 | 1016.2 |
| 20260508044535 | 10 | 14 | 1.6 | 4.8 | 0.00 | 0.03 | 0.00 | 85 | 1016.2 |
| 20260508044033 | 10 | 6 | 1.6 | 6.4 | 0.00 | 0.03 | 0.00 | 86 | 1016.2 |
| 20260508043531 | 10 | 5 | 1.6 | 6.4 | 0.00 | 0.03 | 0.00 | 86 | 1016.3 |
| 20260508043029 | 10 | 24 | 1.6 | 4.8 | 0.00 | 0.03 | 0.00 | 86 | 1016.3 |
| 20260508042527 | 10 | 12 | 0.0 | 3.2 | 0.00 | 0.03 | 0.00 | 86 | 1016.3 |
| 20260508042025 | 10 | 341 | 1.6 | 6.4 | 0.00 | 0.03 | 0.00 | 86 | 1016.2 |
| 20260508041524 | 10 | 347 | 3.2 | 6.4 | 0.00 | 0.03 | 0.00 | 86 | 1016.0 |
| 20260508041021 | 10 | 339 | 3.2 | 6.4 | 0.00 | 0.03 | 0.00 | 86 | 1016.1 |
| 20260508040520 | 10 | 347 | 4.8 | 9.7 | 0.00 | 0.03 | 0.00 | 86 | 1016.0 |
| 20260508040018 | 10 | 344 | 3.2 | 6.4 | 0.00 | 0.03 | 0.00 | 85 | 1016.0 |
| 20260508035517 | 10 | 352 | 4.8 | 11.3 | 0.00 | 0.03 | 0.00 | 85 | 1015.9 |
| 20260508035034 | 10 | 343 | 1.6 | 6.4 | 0.00 | 0.03 | 0.00 | 84 | 1016.0 |
| 20260508034533 | 10 | 332 | 1.6 | 6.4 | 0.00 | 0.03 | 0.00 | 84 | 1015.9 |
| 20260508034031 | 11 | 336 | 3.2 | 6.4 | 0.00 | 0.03 | 0.00 | 84 | 1015.9 |
| 20260508033529 | 11 | 343 | 3.2 | 9.7 | 0.00 | 0.03 | 0.00 | 83 | 1015.9 |
| 20260508033027 | 11 | 357 | 3.2 | 6.4 | 0.00 | 0.03 | 0.00 | 83 | 1015.7 |
| 20260508032525 | 11 | 9 | 3.2 | 9.7 | 0.00 | 0.03 | 0.00 | 82 | 1015.7 |
| 20260508032024 | 11 | 20 | 1.6 | 6.4 | 0.00 | 0.03 | 0.00 | 82 | 1015.6 |
| 20260508031522 | 11 | 343 | 4.8 | 12.9 | 0.00 | 0.03 | 0.00 | 82 | 1015.6 |
| 20260508031020 | 11 | 316 | 3.2 | 6.4 | 0.00 | 0.03 | 0.00 | 81 | 1015.7 |
| 20260508030518 | 11 | 346 | 4.8 | 11.3 | 0.00 | 0.03 | 0.00 | 81 | 1015.7 |
| 20260508030016 | 11 | 332 | 4.8 | 11.3 | 0.00 | 0.03 | 0.00 | 81 | 1015.6 |
| 20260508025535 | 11 | 328 | 4.8 | 9.7 | 0.00 | 0.03 | 0.00 | 81 | 1015.6 |
| 20260508025033 | 11 | 348 | 4.8 | 9.7 | 0.00 | 0.03 | 0.00 | 81 | 1015.5 |
| 20260508024531 | 11 | 337 | 3.2 | 9.7 | 0.00 | 0.03 | 0.00 | 80 | 1015.7 |
| 20260508024029 | 11 | 324 | 3.2 | 6.4 | 0.00 | 0.03 | 0.00 | 80 | 1015.6 |
| 20260508023527 | 11 | 312 | 3.2 | 6.4 | 0.00 | 0.03 | 0.00 | 80 | 1015.7 |
| 20260508023026 | 11 | 306 | 3.2 | 9.7 | 0.00 | 0.03 | 0.00 | 80 | 1015.7 |
| 20260508022524 | 11 | 293 | 3.2 | 11.3 | 0.00 | 0.03 | 0.00 | 80 | 1015.7 |
| 20260508022049 | 11 | 300 | 3.2 | 9.7 | 0.00 | 0.03 | 0.00 | 80 | 1015.6 |
| 20260508022023 | 11 | 300 | 3.2 | 9.7 | 0.00 | 0.03 | 0.00 | 80 | 1015.6 |
| 20260508021521 | 11 | 299 | 1.6 | 4.8 | 0.00 | 0.03 | 0.00 | 80 | 1015.5 |
| 20260508021018 | 11 | 310 | 1.6 | 4.8 | 0.00 | 0.03 | 0.00 | 81 | 1015.5 |
| 20260508020516 | 11 | 301 | 1.6 | 6.4 | 0.00 | 0.03 | 0.00 | 81 | 1015.3 |
| 20260508020035 | 11 | 333 | 3.2 | 11.3 | 0.00 | 0.03 | 0.00 | 81 | 1015.2 |
| 20260508015533 | 11 | 309 | 3.2 | 9.7 | 0.00 | 0.03 | 0.00 | 81 | 1015.4 |
| 20260508015032 | 11 | 338 | 3.2 | 6.4 | 0.00 | 0.03 | 0.00 | 81 | 1015.2 |
| 20260508014530 | 11 | 353 | 4.8 | 9.7 | 0.00 | 0.03 | 0.00 | 81 | 1015.3 |
| 20260508014028 | 11 | 346 | 1.6 | 6.4 | 0.00 | 0.03 | 0.00 | 81 | 1015.2 |
| 20260508013526 | 11 | 337 | 1.6 | 9.7 | 0.00 | 0.03 | 0.00 | 81 | 1015.2 |
| 20260508013037 | 11 | 342 | 1.6 | 4.8 | 0.00 | 0.03 | 0.00 | 81 | 1015.1 |
| 20260508012522 | 11 | 347 | 3.2 | 4.8 | 0.00 | 0.03 | 0.00 | 81 | 1015.1 |
| 20260508012020 | 11 | 356 | 3.2 | 11.3 | 0.00 | 0.03 | 0.00 | 81 | 1015.2 |
| 20260508011518 | 11 | 349 | 3.2 | 9.7 | 0.00 | 0.03 | 0.00 | 81 | 1015.2 |
| 20260508011016 | 11 | 327 | 1.6 | 4.8 | 0.00 | 0.03 | 0.00 | 81 | 1015.3 |
| 20260508010534 | 11 | 344 | 1.6 | 4.8 | 0.00 | 0.03 | 0.00 | 81 | 1015.2 |
| 20260508010033 | 11 | 348 | 3.2 | 6.4 | 0.00 | 0.03 | 0.00 | 82 | 1015.3 |
| 20260508005531 | 11 | 341 | 3.2 | 11.3 | 0.00 | 0.03 | 0.00 | 82 | 1015.2 |
| 20260508005029 | 11 | 351 | 4.8 | 12.9 | 0.00 | 0.03 | 0.00 | 82 | 1015.2 |
| 20260508004527 | 11 | 0 | 6.4 | 12.9 | 0.00 | 0.03 | 0.00 | 81 | 1015.3 |
| 20260508004026 | 11 | 356 | 1.6 | 4.8 | 0.00 | 0.03 | 0.00 | 82 | 1015.2 |
| 20260508003523 | 11 | 327 | 1.6 | 9.7 | 0.00 | 0.03 | 0.00 | 82 | 1015.3 |
| 20260508003021 | 11 | 347 | 3.2 | 9.7 | 0.00 | 0.03 | 0.00 | 82 | 1015.2 |
| 20260508002520 | 11 | 329 | 4.8 | 12.9 | 0.00 | 0.03 | 0.00 | 82 | 1015.2 |
| 20260508002018 | 11 | 349 | 4.8 | 12.9 | 0.00 | 0.03 | 0.00 | 82 | 1015.2 |
| 20260508001516 | 11 | 346 | 4.8 | 9.7 | 0.00 | 0.03 | 0.00 | 82 | 1015.2 |
| 20260508001035 | 11 | 347 | 3.2 | 14.5 | 0.00 | 0.03 | 0.00 | 82 | 1015.1 |
| 20260508000532 | 11 | 324 | 3.2 | 9.7 | 0.00 | 0.03 | 0.00 | 82 | 1015.1 |
| 20260508000031 | 11 | 345 | 3.2 | 11.3 | 0.00 | 0.03 | 0.00 | 82 | 1015.2 |
| 20260507235529 | 11 | 346 | 3.2 | 12.9 | 0.00 | 0.03 | 0.00 | 82 | 1015.1 |
| 20260507235028 | 11 | 342 | 3.2 | 11.3 | 0.00 | 0.03 | 0.00 | 82 | 1015.2 |
| 20260507234525 | 12 | 346 | 4.8 | 11.3 | 0.00 | 0.03 | 0.00 | 82 | 1015.2 |